Point Salines Arpt, Grenada

12:28 AM AST on February 24, 2017 (GMT -0400)
Point Salines International

Weather History for TGPY - February, 2013

Change the Weather History Date:

Sunday, February 10, 2013

  Actual Average Record
Temperature  
Mean Temperature 80 °F -  
Max Temperature 87 °F 83 °F 100 °F (1998)
Min Temperature 73 °F 73 °F 35 °F (1997)
Cooling Degree Days 15    
Growing Degree Days 30 (Base 50)    
Moisture  
Dew Point 72 °F    
Average Humidity 76    
Maximum Humidity 94    
Minimum Humidity 53    
Precipitation  
Precipitation 0.02 in - - ()
Sea Level Pressure  
Sea Level Pressure 29.94 in    
Wind  
Wind Speed 12 mph ()    
Max Wind Speed 21 mph    
Max Gust Speed -    
Visibility 7.2 miles    
Events Rain    
Averages and records for this station are not official NWS values.
T = Trace of Precipitation, MM = Missing Value Source: Averaged Metar Reports

Daily Weather History Graph

Daily Weather History Graph

Search for Another Location

Airport or City:

Trip Planner

Search our weather history database for the weather conditions in past years. The results will help you decide how hot, cold, wet, or windy it might be!

Date:

Astronomy

Feb. 10, 2013 Rise Set
Actual Time 6:30 AM AST 6:12 PM AST
Civil Twilight 6:08 AM AST 6:34 PM AST
Nautical Twilight 5:43 AM AST 6:59 PM AST
Astronomical Twilight 5:18 AM AST 7:24 PM AST
Moon 6:29 AM AST (2/10) 6:40 PM AST (2/10)
Length of Visible Light 12h 25m
Length of Day
11h 42m
New Moon, 0% of the Moon is Illuminated
Feb 10
New Moon
Feb 17
First Quarter
Feb 25
Full
Mar 4
Last Quarter
Mar 11
New

Hourly Weather History & Observations

Time (AST) Temp. Heat Index Dew Point Humidity Pressure Visibility Wind Dir Wind Speed Gust Speed Precip Events Conditions
12:00 AM 78.8 °F - 73.4 °F 83% 29.95 in 6.2 mi East 11.5 mph - N/A   Partly Cloudy
1:00 AM 78.8 °F - 73.4 °F 83% 29.92 in 6.2 mi ESE 13.8 mph - N/A   Partly Cloudy
2:00 AM 78 °F - 73 °F 80% 29.92 in 11 mi ENE 9.2 mph - -   Widespread Dust
2:00 AM 78.8 °F - 73.4 °F 83% 29.92 in 6.2 mi ENE 9.2 mph - N/A   Scattered Clouds
3:00 AM 77.0 °F - 73.4 °F 89% 29.92 in 6.2 mi ESE 13.8 mph - N/A   Scattered Clouds
4:00 AM 75.2 °F - 73.4 °F 94% 29.92 in 6.2 mi East 9.2 mph - N/A   Scattered Clouds
5:00 AM 76 °F - 74 °F 90% 29.92 in 11 mi East 13.8 mph - - Rain Light Rain Showers
5:00 AM 75.2 °F - 73.4 °F 94% 29.92 in 6.2 mi East 13.8 mph - N/A   Scattered Clouds
6:00 AM 77.0 °F - 73.4 °F 89% 29.95 in 6.2 mi ESE 17.3 mph - N/A Rain Light Rain Showers
7:00 AM 75.2 °F - 73.4 °F 94% 29.95 in 6.2 mi ENE 9.2 mph - N/A Rain Light Rain Showers
8:00 AM 79 °F - 74 °F 79% 29.97 in 4 mi East 18.4 mph - - Rain Light Rain Showers
8:00 AM 78.8 °F - 73.4 °F 83% 29.95 in 3.7 mi East 18.4 mph - N/A Rain Light Rain Showers
9:00 AM 80.6 °F 85.4 °F 73.4 °F 79% 29.98 in 6.2 mi East 18.4 mph - N/A   Mostly Cloudy
10:00 AM 84.2 °F 92.3 °F 75.2 °F 74% 29.98 in 6.2 mi East 18.4 mph - N/A   Partly Cloudy
11:00 AM 84 °F - 72 °F 59% 29.98 in 11 mi East 11.5 mph - -   Widespread Dust
11:00 AM 84.2 °F 89.6 °F 71.6 °F 66% 29.98 in 6.2 mi East 11.5 mph - N/A   Mostly Cloudy
12:00 PM 86.0 °F 93.4 °F 73.4 °F 66% 29.98 in 6.2 mi East 11.5 mph - N/A   Mostly Cloudy
1:00 PM 86.0 °F 91.8 °F 71.6 °F 62% 29.95 in 6.2 mi East 20.7 mph - N/A   Scattered Clouds
2:00 PM 86 °F - 71 °F 53% 29.93 in 12 mi East 17.3 mph - -   Widespread Dust
2:00 PM 86.0 °F 91.8 °F 71.6 °F 62% 29.92 in 6.2 mi East 17.3 mph - N/A   Partly Cloudy
3:00 PM 86.0 °F 91.8 °F 71.6 °F 62% 29.92 in 6.2 mi ESE 17.3 mph - N/A   Partly Cloudy
4:00 PM 82.4 °F 87.2 °F 71.6 °F 70% 29.92 in 6.2 mi ESE 15.0 mph - N/A   Partly Cloudy
5:00 PM 82 °F - 72 °F 63% 29.92 in 12 mi East 16.1 mph - -   Widespread Dust
5:00 PM 82.4 °F 87.2 °F 71.6 °F 70% 29.89 in 6.2 mi East 16.1 mph - N/A   Partly Cloudy
6:00 PM 80.6 °F 84.6 °F 71.6 °F 74% 29.92 in 6.2 mi East 13.8 mph - N/A   Partly Cloudy
7:00 PM 78.8 °F - 71.6 °F 78% 29.92 in 6.2 mi East 9.2 mph - N/A   Partly Cloudy
8:00 PM 78 °F - 71 °F 72% 29.96 in 12 mi East 9.2 mph - -   Widespread Dust
8:00 PM 78.8 °F - 71.6 °F 78% 29.92 in 6.2 mi East 9.2 mph - N/A   Partly Cloudy
9:00 PM 77.0 °F - 69.8 °F 78% 29.98 in 6.2 mi ENE 9.2 mph - N/A   Partly Cloudy
10:00 PM 78.8 °F - 69.8 °F 74% 29.98 in 6.2 mi ENE 8.1 mph - N/A   Partly Cloudy
11:00 PM 78 °F - 70 °F 71% 29.99 in 12 mi NE 6.9 mph - -   Widespread Dust
11:00 PM 78.8 °F - 69.8 °F 74% 29.98 in 6.2 mi NE 6.9 mph - N/A   Partly Cloudy